Overview Statistics Trail Chart Weather Telemetry Raw packets
 

This is the latest recevied weather packets stored in our database for station/object W8RSN-13. If no packets are shown the sender has not sent any weather packets the latest 10 day(s).

<< 97 98 99 100 101 102 103 >>
Time Temp. Humidity Pressure Rain* Wind** Luminosity Snow
1787958875 37.78° C 26% 1012.2 hPa - - - -
1787958574 37.78° C 26% 1012 hPa - - - -
1787958274 37.78° C 27% 1012.1 hPa - - - -
1787957972 37.78° C 26% 1012.2 hPa - - - -
1787957672 37.78° C 27% 1012.2 hPa - - - -
1787957371 37.78° C 26% 1012.4 hPa - - - -
1787957070 37.78° C 27% 1012.3 hPa - - - -
1787956769 37.78° C 26% 1012.4 hPa - - - -
1787956468 37.78° C 27% 1012.3 hPa - - - -
1787956167 38.33° C 27% 1012.4 hPa - - - -
1787955866 38.89° C 27% 1012.4 hPa - - - -
1787955565 38.33° C 28% 1012.4 hPa - - - -
1787955265 38.89° C 27% 1012.5 hPa - - - -
1787954964 38.89° C 28% 1012.5 hPa - - - -
1787954663 38.33° C 30% 1012.5 hPa - - - -
1787954362 37.78° C 30% 1012.5 hPa - - - -
1787954061 38.89° C 29% 1012.7 hPa - - - -
1787953760 38.89° C 29% 1012.4 hPa - - - -
1787953459 38.33° C 30% 1012.7 hPa - - - -
1787953158 37.78° C 30% 1012.7 hPa - - - -
1787952857 37.78° C 31% 1012.9 hPa - - - -
1787952556 37.78° C 30% 1013 hPa - - - -
1787952276 37.78° C 31% 1013 hPa - - - -
1787951975 37.78° C 29% 1013.4 hPa - - - -
1787951674 37.78° C 30% 1013.1 hPa - - - -

* Rain since midnight (hover to see other rain measurements)
** Current wind speed in m/s (hover to see current wind gust speed)